sat.trackr.live / text

‹ back to catalog

STARLINK-34397

NORAD 64356 · 2025-126N

PAYLOAD ACTIVE UNKNOWN

§ Identity

Operator
Country
US
Launch date
2025-06-13
Launch site
AFWTR
Launch vehicle
Mass (kg)
RCS (m²)

Purposes: comms

External: N2YO · Heavens-Above · Gunter

§ Orbital elements

Epoch: 2026-09-20T09:33:36.260640Z

Period
94.14 min
Inclination
69.9999°
Eccentricity
0.0003660
Mean motion
15.29581102 rev/d
Perigee alt
474.6 km
Apogee alt
479.6 km
Semi-major
6,855.2 km
B*
3.3169e-4
RAAN
261.2825°
Arg perigee
270.3641°
Mean anomaly
89.7115°
Rev number
6,990

§ Raw data

STARLINK-343971 64356U 25126N   26263.39833635  .00009420  00000+0  33169-3 0  99982 64356  69.9999 261.2825 0003660 270.3641  89.7115 15.29581102 69900

JSON: /api/v1/satellites/64356 · /tle

For live sub-satellite position, see the globe view (requires WebGL).

§ Visibility from observer

Set your observer location to see the next 7 days of passes ≥ 10°. The values pass through the URL so the page stays shareable.

No JS? Fill the form by hand. The geolocation button needs JavaScript.